User: anonymous   Login
Location: Unspecified
(0.0000°N, 0.0000°E)
Time: 22:50:19
(UTC+00:00)
Language:

UWE-1 - Orbit

View from above orbital plane
View from above orbital plane
View from above satellite
View from above satellite

Ground track
Ground track

The orbit data is extracted from the following two-line orbital elements,

1 28892U 05043C   17113.92145642 +.00000350 +00000-0 +76471-4 0  9994
2 28892 097.8639 277.2404 0015296 318.7344 041.2702 14.63320499612402
Epoch (UTC): 23 April 2017 22:06:53
Eccentricity: 0.0015296
inclination: 97.8639°
perigee height: 671 km
apogee height: 693 km
right ascension of ascending node: 277.2404°
argument of perigee: 318.7344°
revolutions per day: 14.63320499
mean anomaly at epoch: 41.2702°
orbit number at epoch: 61240

The dashed part of the orbit path shows where the satellite is in the earth's shadow,  

DLR